Temperature
-2 -1 -2 -1 -2 -3 -3 -2 -2 -1 -2 -1 -2 -3 -2 -2 -2 -2 -2 -2 -2 -2 -2 -3 -3 -3 -3 -3 -3 -3 -3 -3 -3 -3 -3 -3 -3 -3 -3 -3 -3 -3 -3 -2
-2 -2 -2 -2 -2 -2 -3 -3 -3 -3 -2 -2 -2 -2 -2 -2 -3 -3 -2 -2 -3 -3 -3 -3 -3 -3 -3 -4 -4 -4 -4 -4 -4 -4 -4 -4 -4 -4 -4 -3 -3 -3 -3 -3
-2 -3 -2 -2 -2 -3 -4 -4 -4 -3 -2 -3 -4 -3 -3 -3 -3 -3 -3 -3 -3 -3 -3 -4 -4 -4 -4 -4 -4 -4 -4 -5 -5 -5 -5 -5 -5 -4 -4 -4 -4 -4 -4 -4
-3 -3 -2 -1 -3 -3 -3 -4 -4 -4 -4 -4 -3 -3 -2 -2 -3 -3 -3 -3 -3 -3 -4 -4 -4 -4 -4 -5 -5 -5 -5 -5 -5 -5 -5 -5 -5 -5 -5 -5 -5 -5 -4 -4
-4 -3 -3 -2 -3 -4 -4 -3 -4 -4 -4 -4 -3 -4 -3 -2 -3 -3 -3 -4 -4 -4 -4 -4 -5 -5 -5 -5 -5 -5 -5 -6 -6 -6 -6 -6 -6 -6 -6 -6 -5 -5 -5 -5
-5 -3 -3 -1 -3 -4 -3 -3 -4 -5 -5 -4 -5 -5 -4 -3 -3 -4 -4 -4 -4 -4 -5 -5 -5 -5 -6 -6 -6 -6 -6 -6 -6 -7 -7 -7 -7 -7 -6 -6 -6 -6 -6 -6
-5 -5 -4 -4 -5 -4 -3 -2 -3 -4 -4 -4 -5 -4 -4 -4 -4 -4 -4 -5 -5 -5 -5 -5 -6 -6 -6 -6 -6 -7 -7 -7 -7 -7 -7 -7 -7 -7 -7 -7 -7 -7 -7 -7
-6 -5 -4 -5 -5 -5 -3 -3 -3 -3 -4 -4 -4 -4 -5 -5 -5 -5 -5 -5 -5 -6 -6 -6 -6 -7 -7 -7 -7 -7 -7 -7 -7 -7 -8 -8 -8 -8 -8 -8 -8 -8 -7 -7
-6 -4 -4 -5 -4 -3 -3 -3 -3 -4 -4 -4 -5 -5 -5 -5 -6 -6 -6 -6 -6 -6 -6 -7 -7 -7 -7 -7 -7 -8 -8 -8 -8 -8 -8 -8 -9 -9 -9 -9 -9 -9 -8 -8
-7 -6 -5 -5 -4 -4 -4 -4 -4 -4 -5 -5 -5 -6 -6 -6 -6 -7 -7 -7 -7 -7 -7 -7 -7 -7 -8 -8 -8 -8 -8 -8 -9 -8 -9 -9 -9 -9 -9 -9 -9 -9 -9 -9
-8 -7 -6 -4 -4 -4 -4 -5 -5 -5 -5 -6 -6 -6 -7 -7 -7 -7 -7 -7 -8 -8 -8 -8 -8 -8 -8 -8 -9 -9 -9 -9 -9 -9 -9 -9 -9 -10 -10 -10 -10 -10 -10 -10
-6 -6 -6 -5 -4 -4 -5 -5 -5 -5 -6 -6 -6 -7 -7 -7 -7 -8 -8 -8 -8 -8 -8 -8 -8 -8 -9 -9 -9 -9 -9 -9 -9 -9 -10 -10 -10 -10 -10 -10 -10 -10 -10 -10
-5 -5 -5 -5 -5 -5 -5 -6 -6 -6 -6 -7 -7 -7 -7 -8 -8 -8 -8 -8 -8 -8 -8 -9 -9 -9 -9 -9 -10 -10 -10 -10 -10 -10 -10 -10 -10 -10 -10 -10 -10 -10 -10 -10
-5 -5 -6 -6 -6 -6 -6 -6 -7 -7 -7 -7 -7 -8 -8 -8 -8 -8 -8 -9 -9 -9 -9 -9 -9 -9 -10 -10 -10 -10 -10 -10 -10 -10 -11 -11 -11 -11 -11 -11 -11 -10 -10 -10
-6 -6 -6 -6 -7 -7 -7 -7 -7 -7 -8 -8 -8 -8 -8 -8 -9 -9 -9 -9 -9 -9 -9 -9 -9 -10 -10 -10 -10 -10 -10 -11 -11 -11 -11 -11 -11 -11 -11 -11 -11 -11 -11 -11
-6 -7 -7 -7 -7 -7 -8 -8 -8 -8 -8 -8 -8 -9 -9 -9 -9 -9 -9 -9 -10 -10 -10 -10 -10 -10 -10 -10 -11 -11 -11 -11 -11 -11 -11 -11 -11 -11 -11 -12 -12 -12 -11 -11
-8 -8 -8 -8 -8 -8 -8 -8 -8 -9 -9 -9 -9 -9 -9 -9 -9 -9 -9 -10 -10 -10 -10 -10 -10 -10 -11 -11 -11 -11 -11 -11 -11 -11 -11 -12 -12 -12 -12 -12 -12 -12 -12 -12
-8 -8 -8 -8 -8 -9 -9 -9 -9 -9 -9 -9 -9 -9 -9 -10 -10 -10 -10 -10 -10 -10 -10 -11 -11 -11 -11 -11 -11 -11 -12 -12 -12 -12 -12 -12 -12 -12 -12 -12 -12 -12 -12 -12
-8 -8 -8 -8 -9 -9 -9 -9 -9 -9 -9 -10 -10 -10 -10 -10 -10 -10 -10 -10 -11 -11 -11 -11 -11 -11 -11 -11 -12 -12 -12 -12 -12 -12 -12 -12 -12 -12 -12 -12 -12 -12 -12 -12
-8 -8 -8 -9 -9 -9 -9 -10 -10 -10 -10 -10 -10 -10 -10 -10 -10 -11 -11 -11 -11 -11 -11 -11 -11 -11 -11 -12 -12 -12 -12 -12 -12 -12 -12 -12 -12 -12 -12 -12 -12 -12 -12 -12
-8 -9 -9 -9 -9 -9 -10 -10 -10 -10 -10 -10 -10 -11 -11 -11 -11 -11 -11 -11 -11 -11 -12 -12 -12 -12 -12 -12 -12 -12 -12 -12 -12 -12 -12 -13 -13 -13 -13 -13 -13 -13 -13 -12
-9 -9 -9 -9 -10 -10 -10 -10 -10 -10 -11 -11 -11 -11 -11 -11 -11 -11 -11 -12 -12 -12 -12 -12 -12 -12 -12 -12 -12 -12 -12 -12 -12 -12 -13 -13 -13 -13 -13 -13 -13 -13 -13 -13
-9 -9 -10 -10 -10 -10 -10 -10 -11 -11 -11 -11 -11 -11 -11 -12 -12 -12 -12 -12 -12 -12 -12 -12 -12 -12 -12 -12 -12 -12 -12 -12 -13 -13 -13 -13 -13 -13 -13 -13 -13 -13 -13 -13
-10 -10 -10 -10 -10 -10 -10 -11 -11 -11 -11 -11 -11 -12 -12 -12 -12 -12 -12 -12 -12 -13 -13 -13 -13 -13 -13 -13 -13 -13 -13 -13 -13 -13 -13 -13 -13 -13 -13 -13 -13 -13 -13 -13
-10 -10 -10 -11 -11 -11 -11 -11 -11 -11 -11 -12 -12 -12 -12 -12 -12 -12 -13 -13 -13 -13 -13 -13 -13 -13 -13 -13 -13 -13 -13 -13 -13 -13 -13 -13 -13 -14 -14 -14 -14 -14 -13 -13
-11 -11 -11 -11 -11 -11 -11 -12 -12 -12 -12 -12 -12 -12 -12 -12 -13 -13 -13 -13 -13 -13 -13 -13 -14 -14 -14 -14 -14 -14 -14 -14 -14 -14 -14 -14 -14 -14 -14 -14 -14 -14 -14 -14
-11 -11 -11 -11 -12 -12 -12 -12 -12 -12 -12 -12 -12 -12 -13 -13 -13 -13 -13 -13 -14 -14 -14 -14 -14 -14 -14 -14 -14 -14 -14 -14 -14 -14 -14 -14 -14 -14 -14 -14 -14 -14 -14 -14
Wind_Speed
7 6 4 6 8 8 9 9 9 8 9 11 8 7 6 5 4 4 4 3 2 2 2 3 3 3 4 4 4 4 4 4 5 6 6 6 6 6 6 6 7 6 6 6
5 5 5 7 10 10 10 8 10 9 12 10 7 4 4 4 4 4 4 4 3 3 3 3 3 4 4 4 5 4 4 5 6 6 6 6 6 6 6 6 6 6 7 7
5 4 3 8 9 9 6 7 7 11 11 6 4 5 6 5 5 5 5 4 4 4 4 4 4 3 4 5 5 5 5 6 6 6 6 7 7 7 7 7 6 7 7 7
2 2 6 7 2 6 7 7 8 8 8 6 7 6 6 5 6 5 4 4 4 4 4 4 3 3 4 4 4 5 5 6 6 6 7 7 7 7 7 6 6 6 7 7
2 4 8 7 3 4 6 7 8 10 10 7 5 5 5 4 3 4 4 4 4 4 4 3 3 3 3 4 4 5 6 7 7 6 7 7 7 7 7 7 7 6 6 6
3 3 6 7 3 1 3 5 4 5 7 5 1 4 6 3 3 4 4 3 3 3 2 3 3 3 3 4 4 6 7 7 7 6 7 7 8 8 7 7 7 7 7 6
5 6 8 6 2 3 3 5 2 3 5 4 4 6 5 5 5 4 4 4 3 2 2 3 3 2 3 4 5 7 7 7 7 6 7 7 7 7 6 6 6 6 7 6
4 5 8 2 4 5 6 2 2 3 4 4 6 5 5 4 4 4 3 3 2 2 3 3 2 2 3 5 6 6 6 6 7 7 6 6 6 6 6 6 6 6 6 6
8 8 4 4 5 4 2 3 4 3 5 5 5 5 5 4 4 3 3 3 2 2 3 3 3 2 3 5 5 5 6 6 6 7 6 6 6 6 6 5 5 5 5 5
5 7 5 4 5 4 4 5 5 5 5 4 5 5 4 4 4 3 3 3 3 2 3 4 4 4 4 5 5 5 5 6 6 6 6 6 5 5 5 5 5 5 5 5
6 7 6 6 6 7 6 5 5 5 4 4 5 4 4 4 4 4 4 3 3 2 3 5 5 5 5 5 4 4 5 5 5 5 5 5 5 5 6 5 5 5 5 5
7 6 5 6 5 4 5 5 5 5 4 3 3 4 3 4 4 3 4 3 3 4 4 4 4 5 6 5 4 4 5 5 4 4 5 5 5 6 8 8 10 10 9 9
6 5 5 6 5 3 4 4 4 3 3 3 3 3 3 3 3 3 4 4 4 4 4 4 5 6 6 5 4 4 5 5 5 5 5 5 5 6 7 8 10 10 11 11
4 3 4 4 4 3 3 2 2 2 2 2 2 2 2 2 3 3 4 5 4 4 4 4 5 6 6 5 4 5 5 6 6 5 5 5 5 6 6 6 7 7 9 11
4 4 4 3 2 2 2 2 2 3 3 3 2 2 2 3 4 5 5 4 4 4 4 4 5 7 6 5 5 5 5 4 4 5 5 5 5 5 5 6 6 7 6 8
3 2 2 3 4 3 3 3 3 4 4 4 4 4 4 3 4 4 4 3 3 5 5 5 6 6 5 5 5 4 5 7 6 5 5 5 5 5 5 5 6 6 6 6
2 3 3 4 5 4 4 4 4 4 4 4 5 4 3 3 3 4 5 4 4 5 5 6 6 6 5 5 5 4 4 6 7 6 5 5 5 5 5 5 6 6 6 7
3 4 4 4 4 5 5 4 4 4 4 5 4 3 3 3 4 5 5 5 4 5 5 5 6 5 5 5 4 4 4 4 5 5 5 5 5 5 5 5 6 6 6 7
3 3 4 4 3 3 4 4 4 4 4 3 3 3 4 4 5 5 4 4 4 5 6 6 8 5 5 6 5 3 4 5 5 5 5 6 6 5 5 5 5 5 6 5
3 3 3 3 3 3 3 4 4 4 3 3 2 3 4 5 4 4 4 4 4 5 6 7 6 5 5 5 6 3 4 4 5 5 4 4 5 5 5 5 5 5 5 5
3 3 4 3 4 4 3 3 3 3 3 3 3 4 5 5 4 3 3 4 5 5 5 7 4 4 5 5 5 3 4 4 4 4 4 4 5 5 5 5 5 5 5 5
3 3 4 3 3 4 4 3 3 3 3 3 4 4 4 4 4 4 4 4 5 7 5 3 4 6 7 6 3 3 4 4 4 4 4 4 4 5 5 5 5 5 5 4
3 3 3 3 3 4 4 3 3 3 4 4 4 5 4 4 3 3 5 4 4 6 4 4 6 9 8 4 3 3 4 4 4 4 4 4 4 4 5 5 5 5 4 4
3 3 3 3 2 3 4 5 4 4 4 4 5 5 4 4 4 4 4 6 7 6 4 6 8 8 7 3 3 4 4 4 4 4 4 4 4 4 4 4 4 4 4 5
2 2 2 2 3 3 4 4 4 4 4 4 4 4 3 3 3 4 3 4 6 6 4 6 8 8 5 3 4 4 4 4 4 4 4 4 4 4 4 4 4 4 4 5
2 2 3 3 3 3 3 3 3 4 4 4 4 3 3 3 3 3 3 3 4 5 4 3 4 5 4 4 4 4 4 5 5 5 4 4 4 4 4 4 5 4 5 4
2 2 2 3 3 3 3 3 4 4 4 4 4 4 3 3 3 3 3 3 3 3 3 3 3 3 4 4 4 4 4 4 4 4 4 4 4 4 4 4 4 5 5 5
Wind_Direction
250 250 225 236 237 209 208 212 221 247 254 266 269 270 278 279 286 288 292 296 295 299 303 315 318 316 317 318 322 324 322 315 308 306 306 303 301 293 287 285 282 276 273 271
277 262 244 261 253 229 224 227 236 259 269 266 277 277 284 278 279 285 286 286 291 299 302 303 305 310 318 317 316 322 319 312 313 316 314 310 306 302 297 291 287 281 273 269
269 294 327 273 242 212 213 218 207 234 251 271 288 277 268 265 268 266 266 273 280 285 280 284 288 292 298 303 314 320 316 314 317 316 314 312 310 310 305 299 297 291 280 272
267 358 249 251 216 188 207 234 221 236 259 263 258 272 270 248 246 259 265 268 275 281 283 287 290 298 302 309 316 318 318 318 317 316 313 312 310 307 304 300 296 291 288 283
206 250 273 285 246 181 200 261 235 234 254 263 280 308 290 254 229 234 247 258 266 264 267 281 292 300 309 313 316 316 314 313 313 312 312 312 310 307 304 302 299 293 292 288
192 231 254 263 272 212 134 278 255 215 244 263 299 301 281 279 271 261 264 267 272 278 287 287 295 301 303 305 311 307 305 306 307 307 306 306 305 305 304 302 300 297 298 294
214 237 263 272 267 114 163 256 257 214 236 237 231 243 273 293 287 275 272 277 281 275 278 277 286 295 295 299 297 298 302 304 307 308 305 301 303 304 304 303 303 298 293 294
184 218 256 234 138 185 232 287 264 252 253 255 261 273 282 289 290 291 289 289 283 280 290 292 285 290 297 298 301 305 306 308 309 310 310 313 313 312 310 305 303 301 299 299
196 218 256 183 210 248 276 268 269 264 269 267 272 278 287 293 291 294 293 297 293 280 300 308 299 283 285 296 307 311 313 312 311 314 315 314 313 313 314 310 305 303 303 304
248 263 264 259 272 284 269 269 277 274 273 265 268 276 281 289 296 300 304 302 301 305 304 303 303 300 286 294 304 308 308 310 312 314 316 316 313 310 309 308 304 300 300 301
255 278 298 281 262 270 281 282 283 281 266 257 261 272 269 277 284 287 296 299 293 281 280 288 299 300 301 302 305 308 306 308 311 312 309 311 309 303 304 295 299 300 293 293
246 250 239 268 279 274 271 273 270 275 282 272 248 255 263 269 273 275 282 287 288 283 285 290 296 298 300 300 296 299 308 309 309 307 307 309 310 309 305 303 308 309 309 304
253 268 249 272 287 282 269 276 278 267 262 276 274 256 256 268 276 278 282 284 279 279 282 288 294 297 300 301 301 295 291 297 299 301 301 303 305 308 311 312 311 311 315 314
274 286 280 276 277 291 291 294 297 300 289 274 278 288 279 278 284 282 282 283 282 283 286 288 292 295 298 300 300 296 292 295 299 293 294 296 298 299 301 307 314 313 313 316
277 247 250 279 308 321 323 331 332 321 323 323 313 298 287 284 285 285 287 291 294 291 292 294 295 296 301 300 301 296 296 296 296 294 292 291 293 295 295 298 300 304 309 314
301 311 296 294 295 305 315 308 299 294 301 306 305 298 288 279 281 286 290 288 287 288 290 291 290 294 300 300 302 299 295 301 307 301 296 295 293 293 294 294 297 301 304 307
302 304 299 300 295 293 287 281 277 278 281 283 286 294 298 298 300 299 300 297 284 279 283 285 289 297 300 297 294 293 293 298 306 305 297 292 289 288 289 290 292 295 296 303
254 265 266 267 273 279 285 288 285 281 277 277 285 293 293 290 286 289 293 301 302 300 297 294 294 298 297 295 292 288 291 294 295 294 296 294 291 287 286 289 291 295 300 306
293 289 289 287 282 276 280 284 286 286 286 284 280 281 280 280 279 285 293 300 301 303 307 305 309 312 302 300 307 290 292 294 297 297 297 301 305 303 300 296 295 295 299 304
318 318 311 308 304 290 284 287 288 290 289 281 280 288 294 293 289 290 291 287 280 277 291 303 306 302 300 300 309 299 294 292 292 296 299 299 300 301 300 299 299 299 299 299
311 313 314 310 308 305 293 288 285 286 290 283 271 273 280 290 293 288 291 295 295 298 302 309 312 303 301 308 311 306 298 295 294 293 296 297 298 300 300 299 300 300 299 299
301 304 303 303 306 310 309 302 290 287 292 289 284 282 285 291 295 292 277 272 290 310 317 306 303 307 315 320 317 309 303 301 300 297 294 295 296 298 299 300 299 298 296 295
296 297 298 299 296 300 310 309 298 289 285 283 282 280 277 277 277 280 293 295 298 308 317 303 312 319 328 339 325 315 312 310 307 303 298 296 295 295 296 298 299 300 299 297
300 304 304 306 306 310 311 308 305 297 286 284 283 278 275 282 286 274 275 298 310 313 316 316 324 328 339 344 327 320 315 312 309 306 305 305 304 302 301 301 302 302 299 297
299 299 305 313 308 299 298 305 310 307 302 298 298 294 283 267 269 288 293 295 306 316 318 320 327 331 339 327 322 317 313 310 309 310 309 306 305 305 307 307 305 304 303 299
301 299 292 285 285 293 304 307 306 305 306 306 307 306 303 297 287 291 297 299 300 314 319 313 315 320 322 318 316 316 315 315 320 321 315 310 305 305 305 305 303 300 298 298
319 315 313 314 312 309 306 301 299 301 302 298 303 310 311 311 310 310 309 310 311 312 312 311 310 311 314 317 318 318 317 316 314 312 310 306 303 300 302 301 302 301 299 299
Height
1512 1510 1511 1510 1510 1513 1513 1510 1509 1501 1499 1492 1491 1490 1488 1487 1485 1484 1482 1480 1479 1478 1477 1476 1475 1474 1472 1470 1469 1467 1465 1463 1461 1459 1457 1455 1453 1451 1450 1449 1447 1446 1445 1444
1513 1508 1508 1506 1503 1505 1506 1506 1504 1501 1496 1488 1488 1487 1486 1484 1483 1481 1479 1478 1477 1476 1475 1473 1472 1471 1469 1467 1465 1463 1461 1459 1456 1454 1452 1450 1448 1446 1444 1443 1441 1440 1438 1437
1512 1510 1507 1503 1496 1498 1500 1499 1499 1496 1489 1484 1485 1484 1482 1481 1480 1478 1477 1476 1474 1473 1472 1471 1469 1467 1465 1464 1462 1460 1457 1455 1452 1450 1448 1445 1443 1441 1438 1437 1435 1433 1431 1430
1514 1512 1508 1492 1489 1490 1492 1491 1491 1487 1483 1482 1481 1480 1479 1478 1477 1475 1474 1473 1471 1470 1469 1468 1466 1464 1463 1461 1459 1457 1454 1451 1449 1446 1443 1441 1438 1436 1433 1431 1429 1427 1425 1424
1515 1513 1503 1491 1487 1488 1490 1487 1483 1483 1480 1479 1478 1477 1474 1474 1473 1472 1471 1470 1469 1468 1466 1464 1463 1461 1459 1457 1455 1453 1451 1448 1445 1442 1439 1437 1434 1431 1428 1426 1423 1421 1419 1418
1515 1510 1502 1487 1485 1484 1487 1486 1478 1478 1477 1477 1477 1478 1473 1470 1470 1468 1467 1466 1465 1464 1463 1461 1459 1458 1456 1454 1451 1449 1447 1444 1441 1439 1436 1433 1430 1427 1424 1421 1418 1416 1414 1412
1512 1510 1497 1486 1484 1485 1489 1482 1476 1475 1474 1474 1474 1473 1470 1467 1466 1465 1464 1463 1462 1460 1459 1457 1456 1454 1452 1450 1448 1446 1443 1441 1438 1435 1432 1429 1426 1423 1420 1417 1415 1412 1410 1408
1510 1509 1497 1483 1484 1485 1479 1475 1474 1473 1472 1471 1469 1468 1466 1464 1462 1461 1459 1458 1457 1456 1455 1453 1452 1450 1448 1446 1445 1442 1440 1437 1434 1431 1428 1425 1422 1419 1417 1414 1411 1408 1405 1403
1495 1489 1481 1479 1477 1476 1475 1473 1472 1471 1470 1469 1466 1464 1463 1461 1459 1458 1456 1455 1453 1452 1451 1450 1448 1447 1444 1443 1441 1438 1436 1433 1430 1427 1425 1422 1419 1416 1413 1410 1407 1405 1402 1400
1489 1481 1477 1476 1475 1473 1473 1471 1470 1468 1467 1465 1463 1461 1459 1458 1457 1455 1453 1452 1450 1449 1447 1446 1445 1443 1441 1439 1437 1434 1432 1429 1427 1424 1421 1418 1416 1413 1410 1407 1405 1402 1400 1397
1485 1478 1474 1471 1471 1470 1469 1468 1466 1464 1463 1461 1459 1457 1456 1455 1453 1452 1450 1449 1447 1446 1444 1442 1441 1440 1438 1436 1433 1431 1428 1426 1423 1421 1418 1415 1412 1410 1407 1405 1403 1401 1398 1396
1477 1472 1472 1468 1467 1467 1465 1463 1462 1461 1459 1458 1456 1454 1453 1451 1451 1449 1448 1446 1445 1443 1441 1439 1438 1436 1434 1432 1430 1427 1425 1422 1420 1417 1415 1412 1409 1407 1404 1402 1400 1398 1395 1394
1470 1468 1468 1466 1464 1463 1461 1460 1459 1457 1456 1454 1453 1452 1450 1449 1448 1446 1445 1443 1441 1440 1438 1436 1434 1432 1431 1429 1427 1424 1422 1419 1417 1414 1412 1409 1406 1403 1400 1398 1396 1394 1391 1389
1467 1466 1464 1462 1461 1460 1459 1457 1456 1454 1453 1452 1450 1449 1447 1446 1445 1443 1442 1440 1438 1436 1434 1433 1431 1429 1427 1425 1423 1421 1419 1416 1414 1411 1409 1406 1403 1401 1398 1395 1392 1389 1388 1386
1463 1462 1462 1460 1459 1457 1456 1454 1452 1451 1450 1449 1448 1446 1445 1443 1442 1440 1439 1437 1435 1433 1431 1429 1427 1426 1424 1422 1420 1417 1415 1413 1411 1408 1405 1403 1400 1398 1396 1393 1390 1387 1385 1383
1460 1459 1458 1457 1456 1454 1453 1451 1449 1448 1447 1446 1445 1443 1442 1441 1439 1437 1436 1434 1432 1430 1428 1426 1424 1422 1420 1418 1416 1414 1412 1409 1407 1404 1402 1399 1397 1395 1392 1390 1387 1385 1382 1380
1458 1456 1455 1454 1453 1451 1450 1449 1447 1445 1444 1443 1442 1441 1439 1438 1436 1434 1433 1431 1429 1427 1425 1423 1421 1419 1417 1415 1412 1410 1408 1406 1403 1401 1398 1396 1393 1391 1389 1387 1384 1382 1380 1378
1456 1455 1453 1452 1450 1448 1447 1446 1444 1443 1442 1441 1439 1438 1436 1435 1433 1431 1429 1427 1425 1423 1422 1420 1418 1416 1413 1411 1409 1407 1404 1402 1399 1397 1395 1392 1390 1388 1386 1384 1381 1379 1377 1375
1453 1452 1450 1449 1448 1446 1444 1443 1441 1440 1439 1438 1436 1435 1433 1432 1430 1428 1426 1424 1422 1419 1418 1416 1414 1412 1410 1408 1406 1403 1401 1398 1396 1393 1391 1389 1387 1384 1382 1380 1378 1376 1374 1372
1450 1449 1448 1446 1445 1443 1442 1440 1439 1438 1436 1435 1433 1432 1430 1428 1427 1425 1423 1421 1419 1417 1415 1413 1411 1409 1406 1404 1402 1399 1397 1394 1392 1390 1387 1385 1383 1381 1379 1377 1375 1373 1371 1369
1448 1447 1446 1444 1442 1441 1440 1438 1436 1435 1434 1432 1431 1429 1427 1425 1424 1422 1420 1417 1416 1414 1412 1410 1408 1406 1403 1401 1399 1396 1394 1391 1388 1386 1384 1381 1379 1377 1375 1373 1371 1369 1367 1365
1446 1445 1443 1442 1440 1439 1437 1436 1434 1433 1431 1429 1428 1426 1424 1422 1421 1419 1417 1415 1413 1411 1409 1407 1405 1403 1401 1398 1395 1393 1390 1388 1385 1383 1380 1378 1376 1374 1372 1370 1368 1366 1364 1362
1444 1443 1441 1440 1438 1437 1435 1434 1432 1430 1428 1426 1425 1423 1421 1419 1418 1416 1413 1412 1410 1408 1406 1404 1402 1400 1398 1395 1392 1390 1387 1385 1382 1380 1377 1375 1373 1371 1369 1367 1364 1363 1361 1359
1442 1441 1439 1438 1436 1434 1433 1431 1430 1428 1426 1424 1422 1420 1419 1416 1415 1413 1412 1409 1407 1405 1403 1401 1399 1397 1394 1392 1389 1387 1384 1382 1379 1377 1374 1372 1370 1368 1366 1364 1362 1360 1359 1357
1440 1438 1437 1435 1434 1432 1430 1429 1427 1425 1423 1421 1419 1418 1416 1414 1412 1410 1409 1407 1405 1402 1400 1398 1396 1394 1391 1389 1387 1384 1382 1379 1376 1374 1372 1369 1367 1365 1363 1362 1360 1358 1357 1355
1437 1436 1435 1434 1432 1430 1428 1426 1424 1423 1421 1419 1417 1415 1414 1412 1410 1408 1406 1404 1402 1400 1398 1395 1393 1391 1389 1387 1384 1382 1379 1377 1374 1372 1369 1367 1365 1363 1361 1359 1358 1356 1354 1352
1435 1434 1433 1431 1430 1428 1426 1424 1422 1420 1418 1416 1414 1413 1411 1409 1408 1406 1404 1402 1400 1397 1395 1393 1391 1389 1387 1385 1382 1380 1377 1375 1372 1370 1367 1365 1363 1361 1359 1357 1356 1354 1352 1350